SL-16 DEB, 22400

Orbit data source: Space-Track

SL-16 DEB, 22400 is space debris in LEO originally from a launch on Fri, 25 Dec 1992 UTC launched from the Tyuratam Missile And Space Complex (TTMTR). Debris objects in space refer to the collection of defunct objects orbiting the Earth. Examples of debris include non-operational satellites, rocket bodies, and fragments generated from explosions, collisions, or faulty payload assembly.

Loading next visibility...
Identifier
22400, 1992-093CR
Orbit
LEO
Country
Flag of CISCIS
Related business
Manufacturer
Unknown
Mission
Spacecraft
Bus & Motor
Unknown
Mass
Unknown
Launch date (UTC)
1992-12-25 (33 years ago)
Launch vehicle
Unknown
Launch site
Tyuratam Missile And Space Complex (TTMTR)
Object type
Payload
Rocket body
Debris
Shape & HBR
Unknown shape, 0.1 m
Radar Cross Section
Small (<0.1 m²)

Expand to show TLE details & history
Last TLE update: 5 hours ago

TLE from 5 hours ago
0 SL-16 DEB
1 22400U 92093CR  26127.15985067  .00000169  00000-0  15943-3 0  9991
2 22400  71.2396 263.5453 0156631 335.9086 203.6052 13.88855855687333
Epoch: 2026-05-07T03:50Z
TLE epoch observation values (Epoch: 2026-05-07T03:50:11.097Z)
Latitude
1.03042°
Longitude
160.64085°
Altitude
1,040.126 km
Speed
7.279 km/s
True Right ascension
05h 32m 47s
True Declination
1° 01' 28"
Sunlit
Object was in daylight at epoch
Visualization orbit readout
Latitude
Unknown
Longitude
Unknown
Altitude
Unknown
Speed
Unknown
Apparent Right ascension
Unknown
Apparent Declination
Unknown
Sunlit
N/A
Visualization observer readout
Local Sidereal Time
16:21:05
Azimuth
Unknown
Elevation
Unknown
Doppler factor
Unknown
Orbital elements
Apogee altitude
1,045.047 km
Perigee altitude
816.093 km
Semi-major axis
7,308.707 km
Eccentricity
0.01566
Inclination
71.2396°
RAAN
263.5453°
Arg. of periapsis
335.9086°
True anomaly
202.89917°
Mean anomaly
203.6052°
Eccentric anomaly
203.25093°
Mean motion
3.47362 °/min
Orbital period
103.64 mins
BSTAR
0.00015943
Loading maneuver chart data...
Computing Atmospheric mass density...
Loading historical data...
Loading historical data...
Loading historical data...
Loading historical data...
Loading historical data...
Loading historical data...
Loading historical data...

Documentation

Showing up to 5 results
|